Hourly Data Report for April 15, 2016

All times are specified in Local Standard Time (LST). Add 1 hour to adjust for Daylight Saving Time where and when it is observed.

EMERSON AUTO
MANITOBA

49°00'00.000" N
97°14'15.000" W
242.00 m
5020881
71560
WEX

Download Data

Hourly Data (April 2016)
Hourly Data Report for April 15, 2016
Temp Definition
°C
Dew Point Temp Definition
°C
Rel Hum Definition
%
Wind Dir Definition
10's deg

Wind Spd Definition
km/h
Visibility Definition
km
Stn Press Definition
kPa
Hmdx Definition


Wind Chill Definition


Weather Definition


TIME
00:00 9.1 7.5 90 2 14   97.92     LegendNANA
01:00 7.5 6.5 94 3 9   97.94     LegendNANA
02:00 7.6 6.8 94 3 11   97.96     LegendNANA
03:00 8.0 6.7 92 6 13   97.88     LegendNANA
04:00 8.0 5.9 86 9 10   97.88     LegendNANA
05:00 7.9 4.9 82 12 14   97.86     LegendNANA
06:00 9.1 4.7 74 15 15   97.87     LegendNANA
07:00 10.0 5.3 73 14 16   97.82     LegendNANA
08:00 12.1 6.5 69 16 25   97.79     LegendNANA
09:00 13.9 6.9 62 16 28   97.78     LegendNANA
10:00 14.9 7.3 60 16 21   97.78     LegendNANA
11:00 15.3 8.2 63 17 28   97.88     LegendNANA
12:00 14.8 10.2 74 19 24   97.88     LegendNANA
13:00 14.1 10.0 77 18 20   97.88     LegendNANA
14:00 13.9 10.7 81 17 27   97.88     LegendNANA
15:00 14.9 12.0 83 19 19   97.92     LegendNANA
16:00 14.7 11.4 81 19 15   98.02     LegendNANA
17:00 11.9 10.7 92 31 13   98.10     LegendNANA
18:00 10.4 9.8 96 31 20   98.20     LegendNANA
19:00 7.5 7.4 100 33 29   98.32     LegendNANA
20:00 5.6 5.3 98 35 27   98.50     LegendNANA
21:00 4.2 3.9 98 35 33   98.57     LegendNANA
22:00 3.7 3.3 97 35 31   98.67     LegendNANA
23:00 3.4 3.1 98 36 31   98.75     LegendNANA

Notes on Data Quality.

Legend

  • E = Estimated
  • M = Missing
  • NA = Not Available
  • ‡ = Partner data that is not subject to review by the National Climate Archives
Date modified: